Tracking 30970 objects as of 3-Jul-2025
HD Live streaming from Space Station
objects crossing your sky now

CZ-4C R/B

Track CZ-4C R/B now!
10-day predictions


NORAD ID: 40112
Int'l Code: 2014-047D
Perigee: 617.3 km
Apogee: 1,394.9 km
Inclination: 63.4 °
Period: 105.1 minutes
Semi major axis: 7377 km
RCS: Unknown
Launch date: August 9, 2014
Source: People's Republic of China (PRC)
Launch site: Jiuquan Satellite Launch Center, China (JSC)

Note: This is a ROCKET BODY
Your satellite tracking list
Your tracking list is empty




NASA's NSSDC Master Catalog

Two Line Element Set (TLE):
1 40112U 14047D   25183.84047292  .00000212  00000-0  13691-3 0  9997
2 40112  63.4150 124.5667 0527030 359.7031   0.3621 13.70161259544937
Source of the keplerian elements: AFSPC